{"data":{"norad_id":64318,"intl_designator":"2025-124B","name":"STARLINK-11673 [DTC]","alt_names":[],"object_type":"PAYLOAD","status":"ACTIVE","operator":null,"country":"US","launch_date":"2025-06-10","launch_site_code":"AFETR","launch_vehicle":null,"mission":null,"orbit_class":"UNKNOWN","rcs_meters":null,"size_class":null,"mass_kg":null,"dimensions":null,"purposes":["comms"],"wikipedia_slug":null,"has_3d_model":false,"image_url":null,"decayed_at":null,"tle_current":{"epoch":"2026-09-20T22:45:53.925984Z","epoch_age_seconds":99700,"freshness":"FRESH","line1":"1 64318U 25124B   26263.94854081  .00200735  00000+0  15269-2 0  9995","line2":"2 64318  42.9996 292.2531 0001445 239.4403 120.6322 15.70894879 73549","mean_motion":15.70894879,"eccentricity":0.0001445,"inclination_deg":42.9996,"raan_deg":292.2531,"arg_perigee_deg":239.4403,"mean_anomaly_deg":120.6322,"bstar":0.0015269,"rev_number":7354,"period_min":91.667495976349,"perigee_km":355.36508001412,"apogee_km":357.3113433503,"semimajor_km":6734.4752116822,"source":"CELESTRAK","updated_at":"2026-09-21T09:00:35.310694Z"}}}